Laramie, WY

7:58 PM MDT on July 23, 2017 (GMT -0600)
Laramie Regional

Weather History for KLAR - July, 2012

Change the Weather History Date:

Tuesday, July 31, 2012

  Actual Average Record
Temperature  
Mean Temperature 69 °F 64 °F  
Max Temperature 84 °F 80 °F 90 °F (2002)
Min Temperature 53 °F 49 °F 39 °F (1950)
Degree Days  
Heating Degree Days 0 2  
Month to date heating degree days 12 72  
Since 1 June heating degree days 94 310  
Since 1 July heating degree days 12 69  
Cooling Degree Days 4 1  
Month to date cooling degree days 106 40  
Year to date cooling degree days 168 47  
Since 1 June cooling degree days 168 47  
Growing Degree Days 18 (Base 50)    
Moisture  
Dew Point 45 °F    
Average Humidity 47    
Maximum Humidity 72    
Minimum Humidity 22    
Precipitation  
Precipitation T in 0.05 in 1.43 in (1961)
Month to date precipitation 1.48 1.43  
Year to date precipitation 4.08 6.92  
Sea Level Pressure  
Sea Level Pressure 30.02 in    
Wind  
Wind Speed 8 mph (WSW)    
Max Wind Speed 29 mph    
Max Gust Speed 35 mph    
Visibility 10 miles    
Events Thunderstorm    
T = Trace of Precipitation, MM = Missing Value Source: NWS Daily Summary

Daily Weather History Graph

Daily Weather History Graph

Search for Another Location

Airport or City:

Trip Planner

Search our weather history database for the weather conditions in past years. The results will help you decide how hot, cold, wet, or windy it might be!

Date:

Astronomy

Jul. 31, 2012 Rise Set
Actual Time 5:57 AM MDT 8:20 PM MDT
Civil Twilight 5:26 AM MDT 8:51 PM MDT
Nautical Twilight 4:47 AM MDT 9:29 PM MDT
Astronomical Twilight 4:04 AM MDT 10:12 PM MDT
Moon 7:10 PM MDT (7/31) 4:21 AM MDT (7/31)
Length of Visible Light 15h 24m
Length of Day
14h 22m
Waxing Gibbous, 97% of the Moon is Illuminated
Jul 31
Waxing Gibbous
Aug 1
Full
Aug 9
Last Quarter
Aug 17
New
Aug 24
First Quarter

Hourly Weather History & Observations

Time (MDT) Temp. Dew Point Humidity Pressure Visibility Wind Dir Wind Speed Gust Speed Precip Events Conditions
12:53 AM 60.1 °F 48.0 °F 64% 29.99 in 10.0 mi SSW 9.2 mph - N/A   Mostly Cloudy
1:53 AM 57.9 °F 48.0 °F 70% 29.98 in 10.0 mi SSE 8.1 mph - N/A   Clear
2:53 AM 57.0 °F 46.0 °F 67% 29.97 in 10.0 mi SSE 9.2 mph - N/A   Clear
3:53 AM 55.9 °F 46.0 °F 69% 29.98 in 10.0 mi South 6.9 mph - N/A   Mostly Cloudy
4:53 AM 54.0 °F 45.0 °F 72% 29.99 in 10.0 mi South 9.2 mph - N/A   Clear
5:53 AM 55.0 °F 45.0 °F 69% 29.99 in 10.0 mi North - - N/A   Partly Cloudy
6:53 AM 59.0 °F 46.0 °F 62% 30.00 in 10.0 mi North - - N/A   Clear
7:53 AM 63.0 °F 46.0 °F 54% 30.01 in 10.0 mi North - - N/A   Clear
8:53 AM 68.0 °F 45.0 °F 43% 30.01 in 10.0 mi West 4.6 mph - N/A   Clear
9:53 AM 72.0 °F 44.1 °F 37% 30.00 in 10.0 mi Calm Calm - N/A   Clear
10:53 AM 78.1 °F 46.0 °F 32% 29.96 in 10.0 mi NE 8.1 mph - N/A   Clear
11:53 AM 75.9 °F 45.0 °F 33% 29.98 in 10.0 mi Variable 4.6 mph - N/A   Mostly Cloudy
12:49 PM 78.8 °F 46.4 °F 32% 30.32 in 10.0 mi WSW 20.7 mph 26.5 mph N/A Thunderstorm Mostly Cloudy
12:53 PM 78.8 °F 44.6 °F 30% 30.32 in 10.0 mi West 21.9 mph 26.5 mph N/A Thunderstorm Mostly Cloudy
1:04 PM 78.8 °F 44.6 °F 30% 30.32 in 10.0 mi West 21.9 mph 28.8 mph N/A   Mostly Cloudy
1:53 PM 82.0 °F 43.0 °F 25% 29.95 in 10.0 mi NW 13.8 mph 20.7 mph N/A   Partly Cloudy
2:53 PM 81.0 °F 43.0 °F 26% 29.94 in 10.0 mi WSW 15.0 mph 23.0 mph N/A   Mostly Cloudy
3:53 PM 82.9 °F 43.0 °F 24% 29.93 in 10.0 mi SW 9.2 mph - N/A   Mostly Cloudy
4:53 PM 80.1 °F 43.0 °F 27% 29.93 in 10.0 mi NW 10.4 mph - N/A   Mostly Cloudy
5:53 PM 82.0 °F 39.0 °F 22% 29.91 in 10.0 mi North 4.6 mph - N/A   Mostly Cloudy
6:53 PM 80.1 °F 42.1 °F 26% 29.91 in 10.0 mi Calm Calm - N/A   Mostly Cloudy
7:38 PM 73.4 °F 46.4 °F 38% 30.27 in 10.0 mi NNE 10.4 mph - 0.00 in   Mostly Cloudy
7:53 PM 73.0 °F 46.0 °F 38% 29.94 in 10.0 mi NNE 10.4 mph - 0.00 in   Scattered Clouds
8:53 PM 68.0 °F 46.9 °F 47% 29.96 in 10.0 mi NE 6.9 mph - N/A   Mostly Cloudy
9:53 PM 66.0 °F 46.0 °F 48% 29.95 in 10.0 mi SSE 5.8 mph - N/A   Clear
10:53 PM 60.1 °F 46.0 °F 60% 29.95 in 10.0 mi West 9.2 mph - N/A   Clear
11:53 PM 57.9 °F 45.0 °F 62% 29.96 in 10.0 mi SW 10.4 mph - N/A   Clear